QPF
0.02 0.02 0.02 0.04 0.07 0.07 0.04 0.03 0.02 0.02 0.03 0.03 0.01 0.00 0.01 0.01 0.03 0.09 0.11 0.09 0.04 0.03 0.04 0.05 0.06 0.06 0.04 0.03 0.04 0.04 0.03 0.03 0.04 0.06 0.08 0.09 0.07 0.07 0.06 0.04 0.03 0.03 0.04 0.05 0.07 0.09 0.10 0.10 0.09
0.01 0.01 0.02 0.06 0.07 0.04 0.04 0.02 0.01 0.01 0.02 0.02 0.01 0.00 0.00 0.01 0.04 0.10 0.15 0.10 0.05 0.04 0.03 0.03 0.04 0.04 0.03 0.02 0.03 0.03 0.03 0.04 0.04 0.06 0.09 0.07 0.06 0.05 0.06 0.04 0.04 0.04 0.04 0.05 0.10 0.11 0.10 0.09 0.08
0.02 0.02 0.02 0.03 0.02 0.02 0.03 0.02 0.02 0.01 0.01 0.00 0.00 0.00 0.00 0.01 0.03 0.07 0.13 0.10 0.05 0.04 0.04 0.04 0.04 0.03 0.03 0.02 0.02 0.02 0.03 0.02 0.02 0.04 0.05 0.04 0.05 0.05 0.04 0.04 0.04 0.05 0.05 0.08 0.10 0.08 0.07 0.07 0.07
0.02 0.02 0.02 0.02 0.02 0.03 0.02 0.01 0.01 0.00 0.00 0.00 0.00 0.00 0.01 0.01 0.03 0.05 0.06 0.06 0.03 0.03 0.03 0.04 0.05 0.05 0.04 0.03 0.04 0.03 0.03 0.02 0.03 0.04 0.03 0.02 0.03 0.03 0.03 0.04 0.05 0.06 0.07 0.06 0.07 0.06 0.06 0.07 0.08
0.02 0.01 0.03 0.03 0.02 0.02 0.01 0.01 0.01 0.00 0.00 0.00 0.00 0.00 0.01 0.01 0.02 0.03 0.02 0.02 0.02 0.02 0.03 0.04 0.06 0.06 0.05 0.05 0.05 0.06 0.05 0.04 0.04 0.04 0.04 0.03 0.03 0.04 0.03 0.02 0.04 0.06 0.05 0.05 0.04 0.04 0.05 0.07 0.09
0.01 0.01 0.01 0.01 0.01 0.01 0.00 0.00 0.00 0.00 0.00 0.00 0.00 0.00 0.01 0.01 0.01 0.02 0.02 0.02 0.02 0.02 0.03 0.04 0.06 0.06 0.06 0.06 0.09 0.10 0.08 0.07 0.06 0.04 0.04 0.03 0.03 0.04 0.03 0.04 0.05 0.06 0.05 0.03 0.03 0.03 0.04 0.04 0.05
0.02 0.01 0.01 0.00 0.00 0.00 0.00 0.00 0.00 0.01 0.00 0.00 0.00 0.00 0.01 0.01 0.01 0.01 0.01 0.02 0.02 0.02 0.03 0.04 0.06 0.07 0.06 0.05 0.07 0.10 0.07 0.08 0.06 0.05 0.04 0.04 0.04 0.03 0.04 0.06 0.06 0.06 0.05 0.04 0.04 0.06 0.07 0.05 0.05
0.01 0.01 0.00 0.00 0.00 0.00 0.00 0.01 0.01 0.00 0.00 0.00 0.00 0.00 0.00 0.01 0.01 0.01 0.02 0.03 0.04 0.03 0.05 0.06 0.06 0.06 0.04 0.05 0.09 0.09 0.09 0.08 0.06 0.05 0.05 0.06 0.06 0.05 0.05 0.05 0.06 0.06 0.05 0.04 0.05 0.08 0.08 0.06 0.07
0.01 0.01 0.01 0.00 0.00 0.00 0.00 0.01 0.01 0.01 0.00 0.00 0.00 0.00 0.00 0.01 0.01 0.01 0.02 0.02 0.04 0.05 0.05 0.05 0.04 0.03 0.02 0.03 0.05 0.10 0.13 0.09 0.07 0.06 0.07 0.07 0.04 0.03 0.03 0.04 0.06 0.08 0.09 0.07 0.06 0.05 0.04 0.07 0.08
0.01 0.00 0.00 0.00 0.00 0.00 0.00 0.01 0.01 0.01 0.01 0.00 0.00 0.00 0.01 0.00 0.00 0.00 0.00 0.01 0.01 0.03 0.04 0.04 0.03 0.03 0.03 0.02 0.04 0.09 0.08 0.07 0.07 0.06 0.06 0.07 0.05 0.04 0.03 0.04 0.06 0.09 0.09 0.09 0.08 0.07 0.06 0.08 0.06
0.00 0.00 0.00 0.00 0.00 0.00 0.01 0.01 0.01 0.01 0.01 0.01 0.01 0.00 0.00 0.00 0.00 0.00 0.00 0.01 0.01 0.01 0.02 0.03 0.03 0.02 0.03 0.03 0.04 0.04 0.04 0.06 0.06 0.05 0.05 0.04 0.03 0.03 0.04 0.03 0.03 0.06 0.07 0.08 0.10 0.08 0.05 0.07 0.07
0.01 0.00 0.00 0.00 0.00 0.00 0.01 0.01 0.00 0.00 0.00 0.01 0.01 0.00 0.00 0.01 0.00 0.00 0.00 0.00 0.01 0.02 0.02 0.02 0.02 0.01 0.02 0.02 0.02 0.02 0.03 0.06 0.07 0.05 0.03 0.02 0.02 0.01 0.02 0.02 0.03 0.04 0.05 0.05 0.05 0.05 0.07 0.10 0.07
0.00 0.00 0.00 0.00 0.00 0.00 0.00 0.00 0.00 0.00 0.00 0.00 0.01 0.01 0.01 0.01 0.00 0.00 0.00 0.00 0.01 0.01 0.01 0.01 0.01 0.02 0.02 0.02 0.02 0.02 0.02 0.02 0.03 0.03 0.03 0.03 0.02 0.02 0.02 0.03 0.04 0.06 0.08 0.06 0.06 0.07 0.07 0.08 0.07
0.01 0.01 0.00 0.01 0.01 0.01 0.00 0.00 0.00 0.00 0.00 0.00 0.01 0.01 0.02 0.01 0.00 0.00 0.00 0.00 0.01 0.01 0.01 0.00 0.01 0.01 0.02 0.01 0.02 0.02 0.02 0.03 0.03 0.03 0.02 0.02 0.02 0.01 0.03 0.04 0.06 0.07 0.08 0.08 0.09 0.09 0.06 0.04 0.05
0.00 0.00 0.00 0.01 0.01 0.01 0.00 0.00 0.00 0.00 0.00 0.00 0.01 0.01 0.02 0.01 0.01 0.01 0.01 0.01 0.02 0.01 0.01 0.01 0.01 0.01 0.02 0.02 0.02 0.02 0.02 0.03 0.03 0.02 0.02 0.02 0.01 0.01 0.02 0.03 0.04 0.06 0.07 0.09 0.10 0.08 0.04 0.03 0.03
0.00 0.00 0.00 0.01 0.01 0.01 0.00 0.00 0.00 0.00 0.00 0.01 0.01 0.02 0.03 0.02 0.02 0.02 0.02 0.01 0.01 0.02 0.02 0.01 0.01 0.01 0.02 0.02 0.01 0.01 0.03 0.03 0.03 0.03 0.02 0.01 0.01 0.02 0.02 0.02 0.04 0.04 0.07 0.11 0.06 0.03 0.03 0.02 0.02
0.00 0.00 0.00 0.01 0.01 0.01 0.00 0.00 0.00 0.00 0.00 0.01 0.02 0.03 0.04 0.03 0.03 0.03 0.02 0.01 0.01 0.01 0.01 0.01 0.01 0.01 0.01 0.02 0.01 0.01 0.02 0.03 0.03 0.03 0.02 0.01 0.01 0.02 0.02 0.02 0.03 0.04 0.04 0.04 0.02 0.03 0.04 0.03 0.03
0.00 0.00 0.00 0.01 0.01 0.00 0.01 0.01 0.00 0.00 0.00 0.01 0.03 0.04 0.04 0.04 0.04 0.02 0.02 0.01 0.01 0.01 0.01 0.01 0.00 0.01 0.02 0.02 0.02 0.02 0.03 0.05 0.04 0.02 0.01 0.01 0.01 0.01 0.02 0.02 0.02 0.03 0.03 0.03 0.03 0.03 0.03 0.03 0.03
0.00 0.00 0.00 0.00 0.01 0.00 0.00 0.01 0.00 0.00 0.00 0.01 0.03 0.05 0.05 0.05 0.04 0.03 0.02 0.01 0.01 0.01 0.01 0.01 0.01 0.01 0.01 0.01 0.02 0.03 0.05 0.08 0.04 0.01 0.01 0.01 0.01 0.01 0.02 0.01 0.02 0.02 0.02 0.03 0.03 0.02 0.02 0.02 0.02
0.00 0.00 0.00 0.00 0.00 0.00 0.00 0.00 0.00 0.00 0.00 0.01 0.02 0.03 0.04 0.03 0.03 0.02 0.01 0.01 0.01 0.01 0.00 0.01 0.01 0.01 0.01 0.02 0.02 0.03 0.06 0.04 0.02 0.01 0.01 0.01 0.01 0.01 0.01 0.01 0.02 0.03 0.02 0.02 0.02 0.02 0.01 0.01 0.02
0.01 0.00 0.00 0.00 0.00 0.00 0.00 0.00 0.00 0.00 0.00 0.00 0.01 0.01 0.02 0.01 0.01 0.02 0.02 0.01 0.01 0.01 0.01 0.01 0.01 0.01 0.02 0.03 0.03 0.03 0.02 0.01 0.01 0.01 0.02 0.01 0.01 0.01 0.00 0.01 0.01 0.02 0.01 0.01 0.01 0.01 0.01 0.02 0.02
0.00 0.00 0.00 0.00 0.00 0.00 0.00 0.00 0.00 0.00 0.00 0.00 0.01 0.01 0.01 0.01 0.01 0.01 0.01 0.01 0.01 0.01 0.01 0.01 0.01 0.02 0.03 0.04 0.05 0.02 0.01 0.02 0.01 0.01 0.02 0.02 0.01 0.01 0.01 0.01 0.01 0.01 0.00 0.01 0.01 0.01 0.01 0.02 0.02
0.00 0.00 0.00 0.00 0.00 0.00 0.00 0.00 0.00 0.00 0.00 0.00 0.01 0.01 0.01 0.01 0.01 0.00 0.00 0.01 0.01 0.01 0.01 0.00 0.01 0.03 0.05 0.07 0.07 0.05 0.03 0.02 0.01 0.01 0.02 0.02 0.02 0.02 0.02 0.01 0.01 0.01 0.01 0.01 0.02 0.01 0.01 0.01 0.02
0.00 0.00 0.00 0.01 0.00 0.00 0.00 0.00 0.00 0.00 0.00 0.00 0.00 0.00 0.01 0.01 0.01 0.00 0.00 0.01 0.01 0.01 0.01 0.01 0.02 0.06 0.07 0.07 0.06 0.05 0.04 0.04 0.03 0.02 0.02 0.02 0.02 0.02 0.02 0.02 0.02 0.01 0.01 0.02 0.02 0.02 0.02 0.02 0.02
0.00 0.00 0.00 0.01 0.01 0.00 0.00 0.00 0.00 0.01 0.01 0.01 0.00 0.01 0.01 0.01 0.01 0.00 0.00 0.00 0.00 0.01 0.02 0.02 0.03 0.05 0.05 0.05 0.06 0.07 0.06 0.04 0.03 0.02 0.03 0.03 0.03 0.02 0.02 0.02 0.02 0.02 0.03 0.03 0.03 0.03 0.03 0.03 0.03
0.00 0.00 0.01 0.01 0.00 0.00 0.00 0.00 0.01 0.01 0.03 0.02 0.01 0.01 0.01 0.01 0.01 0.00 0.00 0.00 0.01 0.01 0.02 0.03 0.03 0.04 0.04 0.03 0.05 0.09 0.08 0.05 0.03 0.03 0.04 0.05 0.04 0.03 0.02 0.02 0.02 0.02 0.02 0.03 0.05 0.04 0.04 0.04 0.04
0.00 0.00 0.01 0.01 0.00 0.00 0.00 0.00 0.01 0.01 0.02 0.03 0.02 0.01 0.01 0.01 0.01 0.01 0.00 0.00 0.01 0.01 0.02 0.02 0.02 0.02 0.02 0.02 0.04 0.07 0.07 0.07 0.09 0.10 0.10 0.08 0.06 0.03 0.02 0.02 0.01 0.02 0.02 0.03 0.04 0.05 0.04 0.04 0.04
0.01 0.01 0.01 0.01 0.00 0.00 0.00 0.00 0.01 0.01 0.01 0.01 0.01 0.01 0.01 0.01 0.01 0.01 0.00 0.01 0.01 0.01 0.01 0.01 0.01 0.01 0.01 0.02 0.03 0.04 0.06 0.08 0.11 0.12 0.11 0.07 0.05 0.04 0.04 0.03 0.02 0.02 0.03 0.04 0.04 0.04 0.04 0.03 0.04
0.00 0.00 0.01 0.01 0.01 0.00 0.00 0.00 0.00 0.00 0.00 0.00 0.00 0.01 0.01 0.02 0.01 0.01 0.01 0.00 0.00 0.00 0.00 0.00 0.00 0.01 0.01 0.02 0.04 0.06 0.07 0.07 0.08 0.07 0.08 0.07 0.05 0.04 0.04 0.03 0.03 0.03 0.04 0.04 0.04 0.04 0.04 0.04 0.04
0.00 0.00 0.00 0.00 0.00 0.00 0.00 0.00 0.00 0.00 0.00 0.00 0.00 0.01 0.01 0.01 0.01 0.01 0.00 0.00 0.00 0.00 0.00 0.00 0.00 0.01 0.01 0.05 0.09 0.10 0.08 0.05 0.04 0.02 0.02 0.03 0.04 0.04 0.04 0.04 0.05 0.05 0.05 0.05 0.06 0.06 0.06 0.05 0.04
MSLP
1007.59 1008.63 1009.76 1010.85 1011.76 1012.38 1012.65 1012.58 1012.24 1011.74 1011.19 1010.69 1010.30 1010.01 1009.80 1009.60 1009.33 1008.98 1008.52 1008.01 1007.52 1007.14 1006.93 1006.94 1007.16 1007.54 1007.99 1008.44 1008.81 1009.07 1009.21 1009.27 1009.30 1009.34 1009.43 1009.58 1009.77 1009.98 1010.18 1010.34 1010.49 1010.64 1010.85 1011.15 1011.58 1012.13 1012.79 1013.49 1014.18
1007.97 1009.11 1010.31 1011.40 1012.24 1012.74 1012.85 1012.60 1012.08 1011.40 1010.70 1010.07 1009.58 1009.23 1008.97 1008.76 1008.52 1008.22 1007.85 1007.45 1007.08 1006.82 1006.72 1006.82 1007.11 1007.54 1008.03 1008.50 1008.91 1009.20 1009.39 1009.49 1009.55 1009.60 1009.68 1009.80 1009.94 1010.09 1010.23 1010.36 1010.49 1010.65 1010.89 1011.23 1011.69 1012.27 1012.95 1013.66 1014.36
1008.48 1009.69 1010.88 1011.90 1012.62 1012.96 1012.89 1012.48 1011.80 1011.00 1010.21 1009.52 1008.98 1008.59 1008.33 1008.12 1007.91 1007.66 1007.36 1007.04 1006.77 1006.61 1006.60 1006.78 1007.12 1007.58 1008.10 1008.60 1009.03 1009.36 1009.58 1009.72 1009.79 1009.85 1009.92 1009.99 1010.08 1010.18 1010.28 1010.38 1010.52 1010.71 1011.00 1011.40 1011.93 1012.56 1013.26 1013.98 1014.68
1009.10 1010.31 1011.43 1012.32 1012.88 1013.04 1012.81 1012.26 1011.49 1010.64 1009.82 1009.13 1008.60 1008.22 1007.97 1007.77 1007.58 1007.36 1007.11 1006.86 1006.66 1006.56 1006.62 1006.84 1007.21 1007.69 1008.22 1008.72 1009.17 1009.52 1009.77 1009.93 1010.02 1010.09 1010.13 1010.18 1010.22 1010.28 1010.35 1010.46 1010.62 1010.87 1011.23 1011.71 1012.30 1012.98 1013.71 1014.43 1015.11
1009.75 1010.89 1011.89 1012.62 1012.99 1012.98 1012.62 1011.99 1011.19 1010.36 1009.59 1008.95 1008.47 1008.14 1007.91 1007.72 1007.53 1007.32 1007.09 1006.87 1006.72 1006.67 1006.76 1007.00 1007.38 1007.84 1008.35 1008.85 1009.29 1009.65 1009.91 1010.10 1010.22 1010.29 1010.34 1010.37 1010.39 1010.43 1010.50 1010.62 1010.83 1011.14 1011.58 1012.13 1012.78 1013.50 1014.24 1014.95 1015.61
1010.34 1011.37 1012.20 1012.74 1012.94 1012.78 1012.34 1011.68 1010.92 1010.17 1009.49 1008.96 1008.55 1008.26 1008.05 1007.85 1007.65 1007.42 1007.19 1006.99 1006.86 1006.84 1006.95 1007.20 1007.57 1008.02 1008.50 1008.96 1009.38 1009.73 1010.01 1010.22 1010.36 1010.47 1010.53 1010.58 1010.61 1010.66 1010.74 1010.90 1011.15 1011.52 1012.02 1012.63 1013.32 1014.06 1014.80 1015.48 1016.09
1010.80 1011.68 1012.32 1012.67 1012.70 1012.44 1011.95 1011.33 1010.65 1010.02 1009.47 1009.04 1008.70 1008.44 1008.20 1007.97 1007.73 1007.47 1007.22 1007.03 1006.93 1006.95 1007.10 1007.37 1007.74 1008.17 1008.62 1009.05 1009.44 1009.78 1010.06 1010.30 1010.48 1010.63 1010.74 1010.82 1010.89 1010.97 1011.08 1011.27 1011.56 1011.97 1012.51 1013.15 1013.86 1014.59 1015.30 1015.95 1016.52
1011.07 1011.78 1012.24 1012.41 1012.30 1011.97 1011.48 1010.92 1010.36 1009.85 1009.41 1009.05 1008.75 1008.46 1008.17 1007.87 1007.55 1007.24 1006.99 1006.83 1006.78 1006.88 1007.10 1007.43 1007.84 1008.27 1008.70 1009.11 1009.48 1009.81 1010.11 1010.37 1010.60 1010.80 1010.97 1011.11 1011.23 1011.35 1011.50 1011.72 1012.04 1012.47 1013.02 1013.66 1014.36 1015.07 1015.74 1016.35 1016.86
1011.15 1011.70 1011.97 1011.99 1011.78 1011.41 1010.95 1010.47 1010.01 1009.60 1009.24 1008.90 1008.56 1008.19 1007.79 1007.37 1006.95 1006.60 1006.35 1006.25 1006.31 1006.53 1006.88 1007.32 1007.81 1008.30 1008.76 1009.17 1009.53 1009.87 1010.17 1010.47 1010.75 1011.01 1011.25 1011.45 1011.63 1011.80 1012.00 1012.24 1012.57 1013.00 1013.54 1014.16 1014.83 1015.50 1016.13 1016.68 1017.15
1011.09 1011.48 1011.60 1011.49 1011.21 1010.82 1010.40 1009.99 1009.61 1009.25 1008.90 1008.51 1008.07 1007.55 1006.99 1006.42 1005.90 1005.50 1005.27 1005.26 1005.47 1005.87 1006.42 1007.04 1007.67 1008.27 1008.79 1009.24 1009.63 1009.97 1010.30 1010.62 1010.95 1011.27 1011.57 1011.84 1012.09 1012.31 1012.54 1012.81 1013.15 1013.57 1014.08 1014.67 1015.30 1015.92 1016.51 1017.01 1017.44
1010.97 1011.21 1011.20 1011.00 1010.68 1010.30 1009.91 1009.55 1009.20 1008.84 1008.43 1007.93 1007.32 1006.60 1005.84 1005.10 1004.46 1004.03 1003.85 1003.96 1004.36 1004.99 1005.77 1006.61 1007.44 1008.19 1008.83 1009.35 1009.78 1010.16 1010.51 1010.86 1011.22 1011.59 1011.95 1012.28 1012.58 1012.86 1013.13 1013.42 1013.76 1014.18 1014.67 1015.22 1015.81 1016.39 1016.93 1017.39 1017.78
1010.86 1010.99 1010.89 1010.63 1010.28 1009.91 1009.56 1009.22 1008.87 1008.45 1007.93 1007.26 1006.44 1005.50 1004.53 1003.61 1002.87 1002.41 1002.29 1002.55 1003.14 1004.01 1005.04 1006.13 1007.18 1008.11 1008.88 1009.50 1010.00 1010.41 1010.79 1011.17 1011.56 1011.96 1012.36 1012.74 1013.10 1013.42 1013.73 1014.06 1014.42 1014.83 1015.31 1015.84 1016.39 1016.93 1017.43 1017.85 1018.20
1010.85 1010.89 1010.73 1010.44 1010.09 1009.74 1009.40 1009.06 1008.68 1008.18 1007.52 1006.67 1005.64 1004.48 1003.31 1002.24 1001.40 1000.93 1000.88 1001.26 1002.04 1003.12 1004.38 1005.70 1006.96 1008.06 1008.98 1009.70 1010.27 1010.73 1011.14 1011.54 1011.94 1012.37 1012.79 1013.21 1013.61 1013.98 1014.34 1014.70 1015.09 1015.52 1016.00 1016.51 1017.04 1017.54 1018.00 1018.39 1018.70
1010.98 1010.96 1010.76 1010.46 1010.13 1009.81 1009.49 1009.15 1008.72 1008.14 1007.34 1006.33 1005.11 1003.78 1002.46 1001.28 1000.39 999.91 999.91 1000.39 1001.30 1002.53 1003.96 1005.44 1006.84 1008.08 1009.12 1009.94 1010.58 1011.09 1011.52 1011.93 1012.35 1012.78 1013.22 1013.66 1014.09 1014.50 1014.91 1015.32 1015.75 1016.21 1016.70 1017.21 1017.71 1018.19 1018.61 1018.96 1019.21
1011.22 1011.17 1010.97 1010.69 1010.40 1010.12 1009.83 1009.48 1009.02 1008.36 1007.47 1006.34 1005.01 1003.58 1002.18 1000.95 1000.04 999.57 999.60 1000.12 1001.08 1002.37 1003.87 1005.42 1006.89 1008.21 1009.31 1010.20 1010.89 1011.44 1011.91 1012.33 1012.75 1013.17 1013.62 1014.07 1014.52 1014.97 1015.42 1015.88 1016.35 1016.84 1017.35 1017.87 1018.36 1018.81 1019.19 1019.48 1019.68
1011.54 1011.47 1011.29 1011.07 1010.84 1010.61 1010.36 1010.03 1009.55 1008.86 1007.92 1006.75 1005.38 1003.94 1002.54 1001.32 1000.44 999.99 1000.03 1000.54 1001.47 1002.72 1004.17 1005.68 1007.14 1008.45 1009.57 1010.48 1011.21 1011.80 1012.29 1012.72 1013.14 1013.56 1013.99 1014.44 1014.90 1015.38 1015.86 1016.36 1016.87 1017.40 1017.93 1018.44 1018.92 1019.33 1019.67 1019.92 1020.06
1011.85 1011.80 1011.68 1011.53 1011.39 1011.24 1011.04 1010.74 1010.27 1009.58 1008.64 1007.49 1006.18 1004.80 1003.49 1002.36 1001.54 1001.13 1001.15 1001.61 1002.44 1003.55 1004.86 1006.23 1007.57 1008.80 1009.88 1010.79 1011.54 1012.15 1012.66 1013.11 1013.52 1013.93 1014.35 1014.79 1015.25 1015.73 1016.24 1016.76 1017.30 1017.85 1018.38 1018.89 1019.35 1019.73 1020.02 1020.22 1020.32
1012.09 1012.09 1012.06 1012.02 1011.98 1011.92 1011.79 1011.53 1011.09 1010.42 1009.54 1008.46 1007.26 1006.02 1004.86 1003.88 1003.17 1002.81 1002.82 1003.18 1003.85 1004.77 1005.85 1007.01 1008.17 1009.27 1010.26 1011.13 1011.88 1012.51 1013.04 1013.51 1013.93 1014.33 1014.73 1015.14 1015.58 1016.05 1016.56 1017.09 1017.64 1018.20 1018.73 1019.22 1019.64 1019.99 1020.25 1020.40 1020.47
1012.22 1012.31 1012.40 1012.50 1012.59 1012.63 1012.56 1012.34 1011.93 1011.30 1010.48 1009.51 1008.45 1007.39 1006.43 1005.63 1005.06 1004.78 1004.77 1005.04 1005.53 1006.22 1007.05 1007.95 1008.89 1009.82 1010.70 1011.52 1012.25 1012.89 1013.46 1013.94 1014.37 1014.76 1015.13 1015.51 1015.92 1016.37 1016.86 1017.38 1017.92 1018.46 1018.97 1019.44 1019.83 1020.14 1020.37 1020.50 1020.55
1012.23 1012.45 1012.70 1012.96 1013.19 1013.34 1013.33 1013.15 1012.75 1012.14 1011.37 1010.49 1009.58 1008.72 1007.96 1007.36 1006.96 1006.77 1006.77 1006.95 1007.28 1007.74 1008.31 1008.96 1009.68 1010.43 1011.19 1011.94 1012.66 1013.32 1013.91 1014.41 1014.85 1015.23 1015.57 1015.92 1016.29 1016.70 1017.15 1017.65 1018.16 1018.68 1019.16 1019.59 1019.95 1020.23 1020.43 1020.56 1020.61
1012.17 1012.56 1012.99 1013.44 1013.81 1014.06 1014.10 1013.92 1013.50 1012.89 1012.13 1011.32 1010.53 1009.83 1009.27 1008.87 1008.64 1008.55 1008.58 1008.70 1008.90 1009.17 1009.52 1009.95 1010.46 1011.05 1011.71 1012.41 1013.11 1013.78 1014.39 1014.91 1015.36 1015.73 1016.05 1016.36 1016.69 1017.05 1017.46 1017.92 1018.39 1018.87 1019.32 1019.71 1020.04 1020.30 1020.48 1020.60 1020.68
1012.10 1012.68 1013.32 1013.95 1014.47 1014.80 1014.87 1014.66 1014.19 1013.52 1012.74 1011.95 1011.24 1010.66 1010.26 1010.03 1009.95 1009.97 1010.05 1010.16 1010.27 1010.41 1010.59 1010.84 1011.19 1011.66 1012.23 1012.88 1013.56 1014.25 1014.87 1015.42 1015.87 1016.23 1016.53 1016.81 1017.09 1017.41 1017.78 1018.19 1018.63 1019.06 1019.47 1019.83 1020.12 1020.35 1020.52 1020.65 1020.74
1012.08 1012.86 1013.71 1014.52 1015.16 1015.55 1015.61 1015.35 1014.80 1014.05 1013.20 1012.39 1011.70 1011.21 1010.92 1010.83 1010.88 1011.01 1011.15 1011.27 1011.35 1011.40 1011.47 1011.60 1011.84 1012.21 1012.72 1013.33 1014.00 1014.69 1015.33 1015.88 1016.33 1016.69 1016.97 1017.22 1017.47 1017.75 1018.08 1018.45 1018.85 1019.24 1019.61 1019.93 1020.18 1020.38 1020.53 1020.66 1020.76
1012.15 1013.12 1014.15 1015.11 1015.85 1016.27 1016.31 1015.98 1015.33 1014.47 1013.54 1012.68 1011.98 1011.53 1011.32 1011.32 1011.47 1011.69 1011.90 1012.05 1012.13 1012.15 1012.16 1012.22 1012.39 1012.70 1013.16 1013.73 1014.39 1015.07 1015.71 1016.27 1016.72 1017.06 1017.34 1017.57 1017.79 1018.05 1018.35 1018.68 1019.04 1019.40 1019.72 1020.00 1020.21 1020.37 1020.49 1020.59 1020.69
1012.31 1013.43 1014.60 1015.66 1016.46 1016.89 1016.89 1016.48 1015.74 1014.78 1013.77 1012.85 1012.14 1011.69 1011.53 1011.60 1011.83 1012.12 1012.39 1012.58 1012.68 1012.70 1012.69 1012.72 1012.85 1013.12 1013.54 1014.08 1014.72 1015.38 1016.01 1016.56 1017.00 1017.34 1017.61 1017.83 1018.04 1018.28 1018.56 1018.87 1019.19 1019.51 1019.79 1020.02 1020.18 1020.29 1020.37 1020.43 1020.50
1012.51 1013.73 1014.98 1016.08 1016.89 1017.30 1017.26 1016.79 1015.98 1014.95 1013.89 1012.94 1012.22 1011.79 1011.65 1011.77 1012.05 1012.39 1012.71 1012.94 1013.07 1013.11 1013.10 1013.13 1013.24 1013.48 1013.87 1014.38 1014.98 1015.61 1016.22 1016.75 1017.18 1017.52 1017.79 1018.00 1018.22 1018.44 1018.70 1018.99 1019.29 1019.56 1019.80 1019.97 1020.08 1020.13 1020.15 1020.16 1020.17
1012.69 1013.94 1015.19 1016.28 1017.06 1017.42 1017.34 1016.83 1015.98 1014.95 1013.89 1012.96 1012.26 1011.86 1011.76 1011.91 1012.23 1012.61 1012.96 1013.22 1013.37 1013.43 1013.45 1013.48 1013.58 1013.80 1014.16 1014.64 1015.20 1015.79 1016.36 1016.87 1017.29 1017.62 1017.88 1018.10 1018.32 1018.54 1018.79 1019.06 1019.32 1019.56 1019.75 1019.86 1019.91 1019.90 1019.85 1019.79 1019.74
1012.78 1013.98 1015.17 1016.18 1016.88 1017.18 1017.06 1016.54 1015.72 1014.74 1013.74 1012.89 1012.26 1011.93 1011.88 1012.07 1012.41 1012.81 1013.18 1013.46 1013.64 1013.72 1013.76 1013.80 1013.90 1014.12 1014.45 1014.89 1015.40 1015.94 1016.47 1016.94 1017.34 1017.66 1017.92 1018.14 1018.36 1018.58 1018.82 1019.07 1019.30 1019.50 1019.64 1019.70 1019.70 1019.62 1019.51 1019.38 1019.26
1012.72 1013.81 1014.87 1015.75 1016.34 1016.57 1016.42 1015.93 1015.18 1014.30 1013.44 1012.72 1012.22 1011.98 1012.00 1012.24 1012.61 1013.02 1013.39 1013.69 1013.88 1013.99 1014.04 1014.11 1014.22 1014.43 1014.73 1015.13 1015.60 1016.09 1016.56 1016.99 1017.36 1017.66 1017.91 1018.14 1018.35 1018.57 1018.80 1019.03 1019.23 1019.39 1019.49 1019.50 1019.45 1019.32 1019.16 1018.97 1018.80
1012.53 1013.46 1014.34 1015.06 1015.51 1015.66 1015.49 1015.05 1014.41 1013.69 1013.01 1012.46 1012.11 1012.00 1012.11 1012.40 1012.79 1013.20 1013.58 1013.88 1014.09 1014.22 1014.30 1014.39 1014.52 1014.73 1015.02 1015.38 1015.79 1016.23 1016.64 1017.02 1017.35 1017.63 1017.87 1018.09 1018.30 1018.51 1018.73 1018.93 1019.11 1019.23 1019.29 1019.27 1019.18 1019.02 1018.82 1018.60 1018.39
Thickness
5810 5808 5805 5795 5776 5759 5756 5768 5778 5778 5779 5787 5790 5785 5777 5772 5766 5764 5785 5793 5794 5792 5791 5790 5789 5788 5787 5786 5786 5786 5785 5785 5784 5784 5783 5783 5783 5783 5782 5781 5780 5779 5778 5777 5776 5775 5774 5773 5771
5811 5809 5800 5787 5764 5746 5754 5773 5777 5781 5787 5792 5791 5786 5779 5777 5782 5783 5787 5793 5794 5793 5792 5790 5789 5788 5787 5786 5785 5785 5784 5784 5784 5783 5783 5782 5782 5782 5781 5780 5779 5778 5777 5776 5775 5775 5774 5772 5771
5813 5810 5793 5778 5763 5753 5761 5778 5782 5789 5795 5793 5787 5786 5781 5778 5784 5786 5791 5794 5793 5792 5791 5790 5789 5787 5786 5785 5785 5784 5784 5783 5783 5782 5782 5782 5781 5781 5781 5780 5778 5777 5776 5775 5774 5774 5773 5772 5770
5812 5802 5791 5774 5766 5774 5779 5785 5789 5788 5792 5794 5787 5779 5783 5790 5790 5792 5794 5794 5791 5790 5790 5789 5789 5788 5786 5785 5784 5783 5783 5783 5782 5782 5782 5781 5781 5780 5780 5779 5778 5776 5775 5775 5774 5773 5773 5771 5770
5811 5795 5778 5767 5772 5783 5791 5795 5794 5788 5788 5789 5786 5776 5777 5790 5796 5795 5794 5793 5790 5789 5789 5789 5788 5787 5786 5785 5784 5783 5783 5782 5782 5781 5781 5781 5780 5780 5779 5778 5777 5776 5775 5774 5774 5773 5772 5771 5769
5800 5790 5767 5761 5774 5788 5795 5800 5797 5790 5789 5790 5786 5777 5777 5790 5792 5792 5793 5791 5790 5789 5788 5788 5788 5787 5786 5785 5784 5783 5783 5782 5782 5781 5781 5780 5780 5779 5778 5778 5777 5776 5775 5774 5774 5773 5772 5771 5770
5795 5783 5771 5772 5774 5784 5795 5802 5795 5790 5788 5790 5791 5777 5779 5787 5792 5793 5792 5791 5790 5789 5788 5787 5787 5786 5786 5785 5784 5783 5782 5782 5781 5781 5781 5780 5780 5779 5778 5777 5777 5776 5775 5774 5774 5773 5771 5770 5769
5805 5787 5776 5774 5777 5784 5800 5803 5802 5796 5792 5802 5798 5780 5778 5788 5793 5793 5791 5789 5788 5788 5787 5786 5786 5786 5785 5784 5783 5783 5782 5782 5781 5781 5780 5780 5780 5779 5778 5778 5777 5777 5776 5775 5774 5773 5772 5770 5770
5811 5783 5773 5781 5784 5791 5804 5800 5802 5807 5800 5800 5800 5796 5795 5797 5794 5790 5786 5784 5784 5786 5786 5786 5786 5786 5785 5785 5784 5783 5782 5782 5781 5780 5780 5779 5779 5778 5778 5778 5777 5777 5776 5776 5775 5773 5772 5770 5769
5802 5780 5787 5802 5804 5802 5805 5803 5802 5798 5792 5792 5794 5798 5800 5797 5792 5787 5784 5782 5782 5784 5786 5786 5786 5786 5785 5785 5784 5783 5782 5782 5781 5780 5780 5779 5778 5778 5778 5777 5777 5777 5776 5775 5774 5773 5771 5770 5769
5804 5793 5804 5811 5814 5812 5806 5805 5807 5796 5787 5793 5793 5794 5796 5794 5790 5787 5786 5786 5786 5787 5787 5788 5787 5787 5786 5785 5785 5784 5783 5782 5781 5780 5780 5779 5778 5777 5777 5776 5776 5775 5775 5774 5773 5772 5771 5769 5768
5807 5809 5814 5815 5819 5814 5810 5809 5805 5801 5802 5810 5807 5803 5798 5793 5790 5789 5788 5788 5789 5788 5788 5789 5789 5788 5786 5785 5784 5784 5783 5782 5780 5780 5779 5778 5777 5776 5776 5775 5775 5774 5773 5773 5772 5771 5769 5769 5768
5810 5813 5820 5821 5820 5818 5814 5809 5807 5806 5813 5814 5809 5802 5797 5795 5793 5793 5793 5792 5791 5789 5790 5791 5790 5789 5788 5786 5784 5784 5783 5782 5780 5780 5779 5778 5776 5775 5774 5774 5773 5773 5772 5771 5770 5769 5768 5767 5766
5817 5818 5819 5820 5820 5820 5811 5809 5807 5807 5813 5810 5805 5800 5799 5797 5795 5794 5793 5792 5792 5792 5792 5792 5791 5791 5789 5787 5785 5784 5783 5782 5780 5779 5778 5777 5776 5775 5773 5773 5772 5772 5771 5770 5769 5768 5767 5766 5766
5824 5813 5813 5817 5820 5819 5813 5800 5805 5812 5812 5806 5803 5801 5799 5798 5798 5796 5797 5796 5795 5795 5795 5794 5793 5792 5790 5788 5786 5785 5784 5782 5780 5779 5778 5776 5775 5774 5773 5772 5771 5771 5770 5769 5768 5767 5766 5765 5765
5815 5802 5793 5811 5818 5818 5807 5789 5807 5814 5809 5802 5802 5801 5799 5799 5800 5801 5801 5799 5799 5797 5796 5795 5795 5792 5791 5789 5787 5785 5784 5782 5780 5779 5778 5776 5774 5773 5772 5771 5770 5770 5769 5768 5767 5766 5764 5763 5763
5794 5784 5788 5803 5818 5815 5806 5795 5809 5814 5808 5802 5802 5802 5800 5799 5800 5802 5803 5802 5801 5799 5797 5795 5795 5793 5791 5789 5787 5785 5784 5782 5780 5778 5777 5775 5774 5773 5771 5770 5770 5769 5768 5767 5766 5764 5763 5761 5761
5784 5785 5789 5794 5811 5811 5801 5799 5808 5811 5808 5803 5803 5802 5801 5800 5802 5805 5805 5804 5803 5801 5799 5797 5795 5793 5792 5789 5787 5784 5782 5781 5779 5777 5776 5774 5773 5772 5771 5769 5769 5768 5767 5765 5764 5762 5761 5760 5760
5800 5793 5789 5800 5815 5808 5800 5800 5805 5809 5806 5803 5802 5802 5801 5802 5807 5807 5807 5806 5803 5801 5799 5797 5794 5793 5791 5788 5784 5781 5780 5779 5778 5777 5775 5774 5773 5771 5770 5769 5768 5767 5766 5764 5763 5761 5759 5758 5758
5802 5793 5792 5803 5815 5808 5799 5800 5807 5809 5807 5808 5806 5805 5804 5804 5805 5806 5805 5805 5803 5801 5799 5798 5796 5794 5792 5790 5787 5784 5782 5780 5778 5777 5775 5774 5772 5771 5770 5769 5767 5766 5765 5763 5762 5760 5757 5755 5755
5800 5794 5795 5796 5805 5806 5799 5791 5799 5808 5811 5811 5811 5811 5810 5808 5805 5805 5805 5804 5803 5802 5801 5800 5797 5795 5793 5791 5787 5784 5781 5779 5776 5775 5774 5774 5772 5771 5770 5768 5767 5765 5764 5762 5760 5759 5756 5753 5752
5794 5811 5808 5802 5788 5777 5787 5765 5788 5797 5802 5807 5809 5810 5811 5812 5811 5809 5808 5806 5806 5806 5805 5802 5799 5796 5794 5791 5786 5782 5779 5776 5775 5774 5773 5773 5772 5771 5769 5768 5767 5765 5763 5761 5760 5758 5755 5752 5749
5808 5816 5808 5798 5785 5773 5777 5766 5776 5793 5793 5801 5809 5813 5815 5816 5816 5814 5813 5811 5810 5809 5807 5804 5800 5797 5795 5792 5789 5784 5781 5779 5777 5776 5773 5772 5770 5769 5768 5767 5766 5764 5763 5761 5759 5757 5755 5752 5749
5819 5808 5796 5782 5771 5756 5768 5763 5767 5783 5794 5803 5810 5814 5817 5818 5818 5817 5817 5815 5812 5811 5808 5805 5801 5798 5797 5794 5790 5786 5782 5779 5776 5774 5771 5769 5768 5767 5766 5765 5764 5763 5762 5760 5758 5756 5753 5750 5748
5808 5782 5758 5753 5743 5748 5768 5763 5769 5798 5806 5808 5811 5814 5817 5818 5817 5816 5814 5813 5812 5810 5808 5805 5801 5798 5797 5794 5790 5787 5784 5780 5776 5774 5770 5768 5766 5765 5764 5765 5763 5762 5761 5759 5756 5753 5751 5748 5745
5799 5785 5756 5744 5739 5746 5762 5759 5782 5808 5813 5815 5816 5817 5818 5818 5817 5815 5815 5813 5812 5810 5808 5805 5801 5798 5796 5793 5790 5788 5785 5781 5778 5775 5771 5768 5766 5765 5764 5763 5762 5761 5759 5757 5754 5751 5748 5746 5743
5794 5781 5783 5757 5749 5742 5751 5767 5789 5808 5807 5809 5811 5813 5814 5816 5817 5815 5814 5813 5811 5809 5808 5805 5801 5798 5795 5793 5790 5787 5784 5781 5778 5775 5772 5769 5766 5765 5763 5762 5760 5758 5756 5754 5751 5748 5745 5743 5740
5803 5786 5767 5752 5736 5733 5748 5757 5767 5788 5794 5800 5803 5805 5809 5812 5813 5813 5813 5812 5810 5809 5807 5804 5800 5797 5794 5792 5789 5787 5783 5780 5778 5775 5772 5769 5766 5764 5760 5758 5756 5755 5753 5751 5748 5745 5743 5739 5737
5789 5779 5763 5748 5747 5733 5731 5751 5788 5790 5795 5796 5800 5803 5804 5806 5808 5809 5809 5810 5809 5807 5804 5801 5798 5795 5792 5790 5788 5785 5781 5779 5776 5773 5770 5767 5764 5762 5758 5755 5753 5750 5748 5746 5743 5741 5739 5736 5733
5793 5782 5766 5755 5744 5737 5734 5752 5797 5796 5797 5797 5797 5800 5801 5803 5804 5805 5805 5805 5803 5801 5800 5798 5795 5792 5790 5787 5784 5781 5778 5776 5772 5769 5767 5765 5761 5759 5755 5752 5749 5747 5745 5742 5740 5737 5735 5732 5729